Regional Weather Roundup
Issued by NWS

Home | Current Version | Previous Version | Graphics & Text | Print | Product List | Glossary On
Versions: 1 2 3 4 5 6 7 8 9 10 11 12 13 14 15 16 17 18 19 20 21 22 23 24 25 26 27 28 29 30 31 32 33 34 35 36 37 38 39 40 41 42 43 44 45 46 47 48 49 50
027
ASUS43 KLOT 160708
RWRIL

ILLINOIS REGIONAL WEATHER ROUNDUP
NATIONAL WEATHER SERVICE CHICAGO/ROMEOVILLE IL
100 AM CST TUE JAN 16 2018

NOTE: "FAIR" INDICATES FEW OR NO CLOUDS BELOW 12,000 FEET WITH NO
SIGNIFICANT WEATHER AND/OR OBSTRUCTIONS TO VISIBILITY.

* THESE STATIONS ARE NOT UNDER NWS QUALITY CONTROL. THEY ALSO MAY NOT
  REPORT WEATHER SUCH AS PRECIPITATION OR FOG.

ILZ001-002-007-009-015-016-024-160800-
NORTHWEST ILLINOIS

CITY           SKY/WX    TMP DP  RH WIND       PRES   REMARKS
MOLINE         FAIR       0  -7  72 W17       30.49F WCI -21
STERLING*      FAIR       0  -4  83 W15       30.43S WCI -19
SAVANNA*       FLURRIES   3  -3  77 W7        30.45R WCI -10
$$

ILZ003-004-008-010-011-017-018-160800-
NORTH CENTRAL ILLINOIS

CITY           SKY/WX    TMP DP  RH WIND       PRES   REMARKS
ROCKFORD       FLURRIES   7   2  80 W8        30.38S WCI  -6
FREEPORT*      LGT SNOW   6   2  84 W12       30.39S WCI -10
ROCHELLE*      FLURRIES   1  -3  82 W13       30.39S WCI -16
DE KALB*       LGT SNOW   3  -1  83 W18       30.34S WCI -17
PERU*          FAIR       0  -6  78 W15G25    30.44R WCI -20
$$

ILZ005-006-012>014-019>023-160800-
NORTHEAST ILLINOIS

CITY           SKY/WX    TMP DP  RH WIND       PRES   REMARKS
CHICAGO-OHARE  LGT SNOW  10   5  80 W12       30.32S WCI  -5
CHICAGO-MIDWAY LGT SNOW   8   3  80 W12       30.34S FOG     WCI  -7
AURORA         CLOUDY     2  -2  83 W15       30.37S WCI -17
LANSING*       LGT SNOW   5   2  86 SW10      30.37R WCI -10
JOLIET*        LGT SNOW   4  -1  81 W8        30.39S WCI -10
WAUKEGAN       LGT SNOW  17  11  77 W7        30.28S WCI   8
DUPAGE AIRPORT SNOW       5   2  87 W10       30.34S VSB 1/2 WCI -10
KANKAKEE*      FLURRIES   1  -4  78 W16       30.42F WCI -18
WHEELING       LGT SNOW  12   8  84 W12       30.33R VSB 1   WCI  -2
MORRIS*        MOCLDY     2  -4  78 W17       30.39S WCI -19
ROMEOVILLE*    LGT SNOW   2  -2  84 W13G20    30.37S WCI -15
NORTHERLY ISL    N/A     10   5  80 W16         N/A  WCI  -7
$$

LMZ740>746-160800-
SOUTHERN LAKE MICHIGAN

STATION/POSITION SKY/WX   TEMP    WIND        PRES    VSBY  WAVE
                          AIR SEA DIR/SP/G                  HT/PER
                          (F)     (DEG/KT/KT) (MB)    (MI)  (FT/S)
HARRISON CRIB              12     260/ 15/ 18   N/A
BURNHAM HARBOR              9     250/ 16/ 20   N/A
CALUMET HARBOR              8     230/  7/ 13 1026.5F
BURNS HARBOR                8     210/ 14/ 19 1028.1R
MICHIGAN CITY                     180/ 10/ 12   N/A
$$

ILZ025>027-034>036-040-047-049-050-058-095>099-160800-
WEST-CENTRAL ILLINOIS

CITY           SKY/WX    TMP DP  RH WIND       PRES   REMARKS
QUINCY         CLEAR     -2  -9  72 W12       30.57F WCI -20
GALESBURG*     FAIR      -3  -8  79 W17       30.51S WCI -24
MACOMB*        CLEAR     -3  -9  75 W17       30.56S WCI -24
JACKSONVILLE*  PTCLDY    -1  -8  72 W14       30.56F WCI -20
PITTSFIELD*    PTCLDY     1  -7  69 W9        30.58S WCI -15
$$

ILZ028>032-037-038-041>044-048-051>054-059>061-160800-
CENTRAL ILLINOIS

CITY           SKY/WX    TMP DP  RH WIND       PRES   REMARKS
PONTIAC        FAIR       0  -4  82 W14G20    30.45S WCI -19
BLOOMINGTON    FAIR      -3  -8  79 W12       30.46R WCI -21
DECATUR        FAIR       0  -6  76 W14       30.51S WCI -19
PEORIA         FAIR      -2  -8  76 W13       30.50R WCI -20
LACON*         FLURRIES   0  -7  74 W9        30.48S WCI -16
LINCOLN*       FAIR       0  -6  75 W7        30.53S WCI -13
SPRINGFIELD    FAIR       0  -8  69 W13       30.54F WCI -18
TAYLORVILLE    MOCLDY     0  -8  71 W7        30.55S WCI -13
$$

ILZ033-039-045-046-055>057-062-063-160800-
EAST-CENTRAL ILLINOIS

CITY           SKY/WX    TMP DP  RH WIND       PRES   REMARKS
CHAMPAIGN      FAIR      -2  -7  79 W17       30.48S WCI -23
DANVILLE*      FAIR       0  -6  75 W16       30.44R WCI -21
RANTOUL*       FAIR       1  -5  78 W14       30.47S WCI -18
MATTOON        FAIR      -1  -7  75 W16G22    30.50S WCI -21
PARIS*         FAIR       0  -5  81 W12       30.50S WCI -18
$$

ILZ079-100>102-160800-
SOUTHWEST ILLINOIS

CITY           SKY/WX    TMP DP  RH WIND       PRES   REMARKS
ALTON          CLEAR      3  -3  74 W10       30.59S WCI -12
BELLEVILLE     FAIR       5  -4  64 NW8       30.58S WCI  -8
CAHOKIA*       FAIR       5  -5  63 NW14G23   30.61S WCI -12
SPARTA*        FAIR       7  -1  69 NW9G16    30.59S WCI  -7
$$

ILZ064>066-069>071-074>076-080>082-084>086-088>090-092>094-160800-
SOUTH-CENTRAL ILLINOIS

CITY           SKY/WX    TMP DP  RH WIND       PRES   REMARKS
CARBONDALE     FAIR      11   0  61 NW12G20   30.59R WCI  -3
CAIRO*         CLOUDY    13   2  61 NW14      30.59S WCI  -2
EFFINGHAM*     FAIR       3  -2  79 W9        30.55S WCI -12
MARION         FAIR      10  -1  59 NW5       30.59R WCI   2
CENTRALIA*     FAIR       6  -2  70 NW10      30.57R WCI  -8
SALEM*         FAIR       6  -3  66 NW9       30.57R WCI  -8
METROPOLIS*    CLOUDY    13   2  60 N9G16     30.58S WCI   1
$$

ILZ067-068-072-073-078-083-087-091-160800-
SOUTHEAST ILLINOIS

CITY           SKY/WX    TMP DP  RH WIND       PRES   REMARKS
LAWRENCEVILLE  FAIR       7  -2  66 NW13      30.55R WCI  -9
FLORA*         FAIR       6  -3  65 NW13G21   29.44F WCI -10
FAIRFIELD*     FAIR       8  -2  63 NW3       30.57R
HARRISBURG*    FAIR      11   2  66 NW12      30.59R WCI  -3
ROBINSON*      FAIR       3  -4  73 NW9       30.55R WCI -12
CARMI*         FAIR      10   1  68 NW13      30.56S WCI  -6
$$

ABBREVIATIONS USED IN REMARKS
   TC - TEMPERATURE IN CELSIUS
  WCI - WIND CHILL INDEX
   HX - HEAT INDEX
  VSB - VISIBILITY
$$





USA.gov is the U.S. government's official web portal to all federal, state and local government web resources and services.